map of AQJ home
AQJ - Airport
Location
City:  Aqaba, Jordan
Name:King Hussein International Airport
ICAO:OJAQ
IATA:AQJ

Details
Type:Airport (Aerodrome, Airfield)
Use:Public/Civil, International (customs port of entry)
Latitude:2936'42"N (29.611619)
Longitude:3501'05"E (35.018067)
Datum:WGS 1984
Elevation:175 ft (53 m)
Variation:4.51E (WMM2015 magnetic declination)
0.08 annual change
Runways:1
Longest:9855 × 148 ft (3004 × 45 m), paved

Time
Time Zone:UTC+2 (DST+3)
Local Time:

Weather
METAR:OJAQ 151200Z 36006KT 7000 SCT030 25/10 Q1011 NOSIG
TAF:OJAQ 151039Z 1512/1618 36010KT 9999 SCT040 PROB40 1512/1516 5000 -RA

Related Locations
Nearby:
Farthest:RVV: 12004 mi / 19319 km
Raivavae, Tubuai Islands, Austral Islands, PF

Find:

   beyond  
but within

Other Information
Maps:
NOTAMs:
Links:
Sources:

  
  • flag of Jordan
  

Sectional Chart

Flight Planning
at skyvector.com

Satellite Image

Google Maps Satellite view

 

Copyright © 2004-2018 Karl L. Swartz. All rights reserved.
The Great Circle Mapper name and logo are trademarks of the Great Circle Mapper.
All other trademarks mentioned herein belong to their respective owners.
Please see credits for attibutions and further copyright information.

  Follow gcmap on Facebook Follow gcmap on Twitter Follow gcmap on Google+ GCmap on LinkedIn

hCard Microformat

Geo Microformat